Regional Weather Roundup
Issued by NWS

Home | Current Version | Previous Version | Text Only | Print | Product List | Glossary Off
Versions: 1 2 3 4 5 6 7 8 9 10 11 12 13 14 15 16 17 18 19 20 21 22 23 24 25 26 27 28

000
ASUS45 KTFX 310210
RWRMT
MONTANA REGIONAL WEATHER ROUNDUP
NATIONAL WEATHER SERVICE GREAT FALLS MT
800 PM MDT MON MAY 30 2016

NOTE: "FAIR" INDICATES FEW OR NO CLOUDS BELOW 12000 FEET WITH NO
SIGNIFICANT WEATHER AND/OR OBSTRUCTIONS TO VISIBILITY.

MTZ001>007-043-310300-
WEST OF THE DIVIDE

CITY           SKY/WX    TMP DP  RH WIND       PRES   REMARKS
KALISPELL      MOSUNNY   63  33  32 N10       30.13S
MISSOULA       SUNNY     66  29  24 N10       30.13R
BUTTE          SUNNY     58  21  24 N14       30.16R
MULLAN PASS    SUNNY     50  29  44 MISG      30.24S
ANACONDA         N/A     61  27  27 NW6       30.14S
DEER LODGE       N/A     57  28  33 N7        30.16R
EUREKA           N/A     61  39  44 SW3       30.16S
HAMILTON         N/A     66  27  22 W7        30.12R
LIBBY            N/A     68  28  22 W5        30.14S
$$

MTZ008-052>055-310300-
SOUTHWEST MONTANA

CITY           SKY/WX    TMP DP  RH WIND       PRES   REMARKS
BOZEMAN        CLEAR     60  35  39 N8        30.12R
DILLON         SUNNY     63  20  19 NW8       30.11R
W YELLOWSTONE  CLEAR     55  19  24 NW9       30.16R
ENNIS          MOCLDY    59  27  29 N15       30.17R
$$

MTZ009-010-012-014-046-048-049-054-310300-
EAST SLOPES AND CENTRAL MONTANA

CITY           SKY/WX    TMP DP  RH WIND       PRES   REMARKS
CUT BANK       SUNNY     53  36  52 NW18      30.16S
GREAT FALLS    CLOUDY    55  35  47 N14       30.16R
MALMSTROM AFB  CLOUDY    54  39  56 N9        30.16R
HELENA         SUNNY     61  36  39 N9        30.11S
CHOTEAU          N/A     55  37  50 N15G21    30.18R
$$

MTZ011-013-016-021-045-047-050-051-310300-
NORTH CENTRAL MONTANA

CITY           SKY/WX    TMP DP  RH WIND       PRES   REMARKS
HAVRE          LGT RAIN  48  44  86 W20G29    30.07S
LEWISTOWN      MOCLDY    51  39  63 NW15G23   30.14R
N BAR RANCH      N/A     48  36  61 NW21G32   30.10F
CHINOOK          N/A     50  43  76 W20G26    30.03S
$$

MTZ017>020-022>027-061-062-310300-
NORTHEAST MONTANA

CITY           SKY/WX    TMP DP  RH WIND       PRES   REMARKS
GLASGOW        CLOUDY    53  42  66 W17G28    29.96R
JORDAN           N/A     54  37  52 W24G36    30.01S
SIDNEY         MOCLDY    55  52  88 NW12      29.93R
WOLF POINT     CLOUDY    57  46  66 W15G24    29.95R
POPLAR           N/A     55  52  88 W3        29.94S
$$

MTZ028>42-056>058-310300-
SOUTHCENTRAL AND SOUTHEAST MONTANA

CITY           SKY/WX    TMP DP  RH WIND       PRES   REMARKS
BAKER          PTCLDY    53  46  77 NW12G22   29.99R
BILLINGS       MOCLDY    60  33  36 N20G26    30.08S
LIVINGSTON     CLEAR     58  35  42 NW10      30.10R
MILES CITY     CLEAR     59  39  47 NW24G30   30.01R
FORSYTH          N/A     57  37  47 W20       30.04S
$$

REGIONAL REPORTS...DAKOTAS

CITY           SKY/WX    TMP DP  RH WIND       PRES   REMARKS
WILLISTON      LGT RAIN  55  53  93 NE5       29.91F FOG
MINOT          LGT RAIN  58  54  86 NE8       29.86S
DICKINSON      CLOUDY    53  50  89 NW14      29.87F
BEACH            N/A     52  52 100 NW13      29.98F
CROSBY         LGT RAIN  54  54 100 NW10      29.93S
WATFORD CITY   LGT RAIN  54  54 100 N7        29.90F
BISMARCK       CLOUDY    58  55  90 N18       29.80R
GRAND FORKS    RAIN      62  54  74 E8        29.86R
FARGO          CLOUDY    75  54  47 E14       29.73F
BUFFALO SD       N/A     55  45  68 NW23      29.92R
RAPID CITY     LGT RAIN  54  49  83 NW26G40   29.99R
$$

REGIONAL REPORTS...WYOMING/IDAHO/WASHINGTON

CITY           SKY/WX    TMP DP  RH WIND       PRES   REMARKS
GILLETTE       CLOUDY    49  45  86 NW9       30.08R
SHERIDAN       PTCLDY    51  45  79 W5        30.11R
BUFFALO WY     CLOUDY    49  43  80 N18G25    30.11R
CODY           PTCLDY    54  39  58 NW6       30.11S
YELLOWSTONE LA   N/A     50  19  29 VRB6      30.21R
IDAHO FALLS    MOCLDY    66  33  29 S14       30.06R
SALMON         SUNNY     66  30  26 N7        30.06S
BOISE          SUNNY     74  24  15 NW15      30.06S
SPOKANE        MOSUNNY   70  24  17 VRB7      30.16S
$$

REGIONAL REPORTS...ALBERTA

CITY           SKY/WX    TMP DP  RH WIND       PRES   REMARKS
EDMONTON       PTSUNNY   52  43  71 NW7       30.19S
CALGARY        MOSUNNY   54  39  58 NE21G26   30.19R
LETHBRIDGE     MOSUNNY   57  39  51 N9G25     30.16R
MEDICINE HAT   LGT RAIN  50  45  81 NW22G30   30.09R
WATERTON GATE    N/A     48  39  71 E5          N/A
CARDSTON         N/A     50  39  66 W3          N/A
MILK RIVER       N/A     52  43  71 N14         N/A
$$

REGIONAL REPORTS...SASKATCHEWAN

CITY           SKY/WX    TMP DP  RH WIND       PRES   REMARKS
SWIFT CURRENT  LGT RAIN  52  50  93 W3        29.93S
REGINA         LGT RAIN  55  54  94 NE6       29.92S
SASKATOON      CLOUDY    59  46  63 E12G18    30.00R
CYPRESS HILLS    N/A     43  41  93 NW13G22     N/A
VAL MARIE        N/A     52  45  76 NW12        N/A
ROCKGLEN         N/A     52  48  87 N3          N/A
$$




USA.gov is the U.S. government's official web portal to all federal, state and local government web resources and services.